Location: Forli
(44.2227°N, 12.0407°E)
Time: 00:51:40
(UTC+02:00)

PCSat - Pass Details

Date: 16 April 2026
Orbit: 781 x 790 km, 67.1° (Epoch: 19 May)

Event Time Altitude Azimuth Distance (km) Brightness Sun altitude
Rises 00:42:44 0° 329° (NNW) 3,294 13.6 -35.3°
Reaches altitude 10° 00:45:09 10° 331° (NNW) 2,361 12.7 -35.4°
Enters shadow 00:48:03 33° 336° (NNW) 1,320 11.1 -35.5°
